Weather History for Linton Municipal Airport, ND

Change the Weather History Date:

Tuesday, August 19, 2014

  Actual Average (KBIS) Record (KBIS)
Temperature  
Mean Temperature 68 °F 69 °F  
Max Temperature 86 °F 83 °F 103 °F (1959)
Min Temperature 51 °F 55 °F 38 °F (1895)
Degree Days  
Heating Degree Days 0 1  
Month to date heating degree days 16  
Since 1 June heating degree days 126  
Since 1 July heating degree days 33  
Cooling Degree Days 4 5  
Month to date cooling degree days 125  
Year to date cooling degree days 429  
Since 1 June cooling degree days 412  
Growing Degree Days 18 (Base 50)    
Moisture  
Dew Point 60 °F    
Average Humidity 77    
Maximum Humidity 100    
Minimum Humidity 45    
Precipitation  
Precipitation 0.00 in 0.07 in 1.07 in (1884)
Month to date precipitation 1.46  
Year to date precipitation 12.99  
Snow  
Snow 0.00 in 0.00 in 0.00 in (2002)
Month to date snowfall 0.0  
Since 1 June snowfall 0.0  
Since 1 July snowfall 0.0  
Snow Depth -    
Sea Level Pressure  
Sea Level Pressure 29.78 in    
Wind  
Wind Speed 3 mph (SE)    
Max Wind Speed 10 mph    
Max Gust Speed 16 mph    
Visibility 9 miles    
Events      
T = Trace of Precipitation, MM = Missing Value Source: NWS Daily Summary

Daily Weather History Graph

Daily Weather History Graph

Search for Another Location

Airport:

Trip Planner

Search our weather history database for the weather conditions in past years. The results will help you decide how hot, cold, wet, or windy it might be!

Date:

Astronomy

Aug. 19, 2014 Rise Set
Actual Time 6:45 AM CDT 8:43 PM CDT
Civil Twilight 6:12 AM CDT 9:15 PM CDT
Nautical Twilight 5:32 AM CDT 9:54 PM CDT
Astronomical Twilight 4:48 AM CDT 10:38 PM CDT
Moon 1:32 AM CDT (8/19) 4:47 PM CDT (8/19)
Length of Visible Light 15h 02m
Length of Day
13h 58m
Waning Crescent, 29% of the Moon is Illuminated
Aug 19
Waning Crescent
Aug 25
New
Sep 2
First Quarter
Sep 8
Full
Sep 15
Last Quarter

Hourly Weather History & Observations

Time (CDT) Temp. Heat Index Dew Point Humidity Pressure Visibility Wind Dir Wind Speed Gust Speed Precip Events Conditions
12:15 AM 59.0 °F - 59.0 °F 100% 29.81 in 10.0 mi SW 3.5 mph - N/A   Clear
12:35 AM 59.0 °F - 59.0 °F 100% 29.82 in 10.0 mi SW 3.5 mph - N/A   Clear
1:15 AM 57.2 °F - 57.2 °F 100% 29.81 in 10.0 mi Calm Calm - N/A   Clear
1:35 AM 55.4 °F - 55.4 °F 100% 29.81 in 10.0 mi Calm Calm - N/A   Clear
1:55 AM 55.4 °F - 55.4 °F 100% 29.81 in 10.0 mi Calm Calm - N/A   Clear
2:15 AM 55.4 °F - 55.4 °F 100% 29.80 in 10.0 mi Calm Calm - N/A   Clear
2:35 AM 55.4 °F - 55.4 °F 100% 29.80 in 10.0 mi Calm Calm - N/A   Clear
2:55 AM 53.6 °F - 53.6 °F 100% 29.80 in 8.0 mi Calm Calm - N/A   Clear
3:15 AM 53.6 °F - 53.6 °F 100% 29.80 in 5.0 mi Calm Calm - N/A   Clear
3:35 AM 55.4 °F - 55.4 °F 100% 29.80 in 8.0 mi Calm Calm - N/A   Clear
3:55 AM 53.6 °F - 53.6 °F 100% 29.81 in 8.0 mi East 3.5 mph - N/A   Clear
4:15 AM 53.6 °F - 53.6 °F 100% 29.81 in 5.0 mi ESE 3.5 mph - N/A   Clear
4:35 AM 53.6 °F - 53.6 °F 100% 29.81 in 5.0 mi Calm Calm - N/A   Clear
4:55 AM 53.6 °F - 53.6 °F 100% 29.81 in 10.0 mi Calm Calm - N/A   Clear
5:15 AM 53.6 °F - 53.6 °F 100% 29.81 in 8.0 mi SSW 3.5 mph - N/A   Clear
5:35 AM 51.8 °F - 51.8 °F 100% 29.82 in 7.0 mi East 4.6 mph - N/A   Clear
5:55 AM 51.8 °F - 51.8 °F 100% 29.82 in 7.0 mi Calm Calm - N/A   Clear
6:15 AM 51.8 °F - 51.8 °F 100% 29.83 in 7.0 mi East 4.6 mph - N/A   Clear
6:35 AM 51.8 °F - 51.8 °F 100% 29.83 in 5.0 mi East 4.6 mph - N/A   Clear
7:15 AM 53.6 °F - 53.6 °F 100% 29.82 in 2.5 mi East 5.8 mph - N/A   Clear
7:35 AM 53.6 °F - 53.6 °F 100% 29.83 in 3.0 mi Calm Calm - N/A   Clear
7:55 AM 55.4 °F - 55.4 °F 100% 29.82 in 4.0 mi East 5.8 mph - N/A   Clear
8:15 AM 57.2 °F - 57.2 °F 100% 29.82 in 5.0 mi East 3.5 mph - N/A   Clear
8:35 AM 60.8 °F - 60.8 °F 100% 29.82 in 5.0 mi East 3.5 mph - N/A   Clear
8:55 AM 62.6 °F - 62.6 °F 100% 29.82 in 6.0 mi Calm Calm - N/A   Clear
9:15 AM 64.4 °F - 64.4 °F 100% 29.82 in 10.0 mi Calm Calm - N/A   Clear
9:35 AM 66.2 °F - 66.2 °F 100% 29.82 in 10.0 mi Calm Calm - N/A   Clear
9:55 AM 69.8 °F - 66.2 °F 88% 29.82 in 10.0 mi Calm Calm - N/A   Clear
10:15 AM 71.6 °F - 64.4 °F 78% 29.82 in 10.0 mi WNW 5.8 mph - N/A   Clear
10:35 AM 73.4 °F - 62.6 °F 69% 29.82 in 10.0 mi WNW 4.6 mph - N/A   Clear
10:55 AM 75.2 °F - 64.4 °F 69% 29.82 in 10.0 mi West 3.5 mph - N/A   Clear
11:15 AM 75.2 °F - 64.4 °F 69% 29.81 in 10.0 mi NNW 3.5 mph - N/A   Clear
11:35 AM 77.0 °F - 64.4 °F 65% 29.81 in 10.0 mi WNW 3.5 mph - N/A   Clear
11:55 AM 78.8 °F - 64.4 °F 61% 29.80 in 10.0 mi Calm Calm - N/A   Clear
12:15 PM 80.6 °F 82.3 °F 64.4 °F 58% 29.80 in 10.0 mi SSE 3.5 mph - N/A   Clear
12:35 PM 80.6 °F 81.8 °F 62.6 °F 54% 29.79 in 10.0 mi Calm Calm - N/A   Clear
12:55 PM 82.4 °F 83.4 °F 62.6 °F 51% 29.78 in 10.0 mi Calm Calm - N/A   Clear
1:15 PM 82.4 °F 83.4 °F 62.6 °F 51% 29.78 in 10.0 mi WSW 4.6 mph - N/A   Clear
1:35 PM 82.4 °F 83.4 °F 62.6 °F 51% 29.78 in 10.0 mi Calm Calm - N/A   Clear
1:55 PM 84.2 °F 85.6 °F 64.4 °F 51% 29.77 in 10.0 mi NNW 6.9 mph - N/A   Clear
2:15 PM 84.2 °F 85.0 °F 62.6 °F 48% 29.77 in 10.0 mi WNW 4.6 mph - N/A   Partly Cloudy
2:35 PM 84.2 °F 84.4 °F 60.8 °F 45% 29.77 in 10.0 mi Calm Calm - N/A   Partly Cloudy
2:55 PM 82.4 °F 82.5 °F 59.0 °F 45% 29.77 in 10.0 mi Calm Calm - N/A   Partly Cloudy
3:15 PM 84.2 °F 85.0 °F 62.6 °F 48% 29.77 in 10.0 mi ENE 3.5 mph - N/A   Scattered Clouds
3:35 PM 84.2 °F 85.0 °F 62.6 °F 48% 29.76 in 10.0 mi SE 8.1 mph - N/A   Clear
3:55 PM 82.4 °F 83.4 °F 62.6 °F 51% 29.76 in 10.0 mi SE 6.9 mph - N/A   Clear
4:15 PM 84.2 °F 85.0 °F 62.6 °F 48% 29.76 in 10.0 mi ESE 5.8 mph - N/A   Partly Cloudy
4:35 PM 86.0 °F 86.6 °F 62.6 °F 45% 29.76 in 10.0 mi South 6.9 mph - N/A   Partly Cloudy
4:55 PM 84.2 °F 85.0 °F 62.6 °F 48% 29.75 in 10.0 mi South 9.2 mph - N/A   Clear
5:35 PM 84.2 °F 85.0 °F 62.6 °F 48% 29.75 in 10.0 mi SSE 6.9 mph - N/A   Clear
5:55 PM 84.2 °F 85.0 °F 62.6 °F 48% 29.75 in 10.0 mi SSE 5.8 mph - N/A   Clear
6:15 PM 84.2 °F 85.0 °F 62.6 °F 48% 29.74 in 10.0 mi SE 5.8 mph - N/A   Clear
6:35 PM 84.2 °F 85.0 °F 62.6 °F 48% 29.74 in 10.0 mi SE 6.9 mph - N/A   Clear
6:55 PM 84.2 °F 85.0 °F 62.6 °F 48% 29.74 in 10.0 mi SSE 5.8 mph - N/A   Clear
7:15 PM 82.4 °F 83.9 °F 64.4 °F 54% 29.73 in 10.0 mi SSE 5.8 mph - N/A   Clear
7:35 PM 80.6 °F 82.3 °F 64.4 °F 58% 29.73 in 10.0 mi SSE 5.8 mph - N/A   Clear
7:55 PM 80.6 °F 82.7 °F 66.2 °F 61% 29.73 in 10.0 mi SE 5.8 mph - N/A   Clear
8:15 PM 77.0 °F - 64.4 °F 65% 29.73 in 9.0 mi SE 8.1 mph - N/A   Clear
8:35 PM 75.2 °F - 64.4 °F 69% 29.74 in 10.0 mi SE 6.9 mph - N/A   Clear
8:55 PM 73.4 °F - 64.4 °F 73% 29.74 in 10.0 mi SE 9.2 mph - N/A   Clear
9:35 PM 71.6 °F - 62.6 °F 73% 29.74 in 10.0 mi SE 10.4 mph - N/A   Clear
9:55 PM 71.6 °F - 62.6 °F 73% 29.74 in 10.0 mi SE 9.2 mph - N/A   Clear
10:15 PM 69.8 °F - 62.6 °F 78% 29.74 in 10.0 mi SE 10.4 mph - N/A   Clear
10:35 PM 68.0 °F - 62.6 °F 83% 29.75 in 10.0 mi SSE 8.1 mph - N/A   Clear
10:55 PM 69.8 °F - 62.6 °F 78% 29.75 in 10.0 mi SSE 10.4 mph 16.1 mph N/A   Clear
11:15 PM 68.0 °F - 64.4 °F 88% 29.75 in 10.0 mi SE 10.4 mph - N/A   Clear
11:35 PM 68.0 °F - 64.4 °F 88% 29.74 in 10.0 mi SE 10.4 mph - N/A   Clear
11:55 PM 68.0 °F - 64.4 °F 88% 29.74 in 10.0 mi SE 10.4 mph - N/A   Clear